This is the latest recevied weather packets stored in our database for station/object K8RRT. If no packets are shown the sender has not sent any weather packets the latest 10 day(s).
| Time | Temp. | Humidity | Pressure | Rain* | Wind** | Luminosity | Snow |
|---|---|---|---|---|---|---|---|
| 1777218560 | 13.89° C | 82% | 1013.9 hPa | 0 mm | - | 289 W/m² | - |
| 1777218254 | 13.89° C | 83% | 1014 hPa | 0 mm | - | 269 W/m² | - |
| 1777217952 | 13.89° C | 82% | 1013.7 hPa | 0 mm | - | 285 W/m² | - |
| 1777217646 | 13.33° C | 84% | 1013.8 hPa | 0 mm | - | 288 W/m² | - |
| 1777217343 | 13.33° C | 84% | 1013.8 hPa | 0 mm | - | 266 W/m² | - |
| 1777217039 | 12.78° C | 84% | 1014.2 hPa | 0 mm | - | 241 W/m² | - |
| 1777216736 | 12.78° C | 85% | 1014.1 hPa | 0 mm | - | 215 W/m² | - |
| 1777216431 | 12.78° C | 85% | 1013.9 hPa | 0 mm | - | 180 W/m² | - |
| 1777216130 | 12.78° C | 85% | 1014 hPa | 0 mm | - | 163 W/m² | - |
| 1777215825 | 12.78° C | 85% | 1014 hPa | 0 mm | - | 163 W/m² | - |
| 1777215522 | 12.78° C | 85% | 1013.9 hPa | 0 mm | - | 168 W/m² | - |
| 1777215218 | 12.78° C | 85% | 1013.7 hPa | 0 mm | - | 173 W/m² | - |
| 1777214914 | 12.78° C | 86% | 1013.7 hPa | 0 mm | - | 202 W/m² | - |
| 1777214613 | 12.78° C | 85% | 1013.8 hPa | 0 mm | - | 189 W/m² | - |
| 1777214308 | 12.78° C | 85% | 1013.7 hPa | 0 mm | - | 163 W/m² | - |
| 1777214007 | 12.78° C | 85% | 1013.6 hPa | 0 mm | - | 137 W/m² | - |
| 1777213702 | 12.78° C | 84% | 1013.3 hPa | 0 mm | - | 151 W/m² | - |
| 1777213398 | 13.33° C | 84% | 1013.4 hPa | 0 mm | - | 175 W/m² | - |
| 1777213096 | 13.33° C | 84% | 1013.2 hPa | 0 mm | - | 188 W/m² | - |
| 1777212793 | 12.78° C | 84% | 1013.1 hPa | 0 mm | - | 200 W/m² | - |
| 1777212489 | 13.33° C | 85% | 1013.1 hPa | 0 mm | - | 203 W/m² | - |
| 1777212183 | 13.33° C | 84% | 1013.1 hPa | 0 mm | - | 190 W/m² | - |
| 1777211879 | 12.78° C | 84% | 1013.3 hPa | 0 mm | - | 177 W/m² | - |
| 1777211576 | 12.78° C | 85% | 1013.3 hPa | 0 mm | - | 203 W/m² | - |
| 1777211274 | 12.78° C | 85% | 1013 hPa | 0 mm | - | 230 W/m² | - |
* Rain latest hour (hover to see other rain measurements)
** Current wind speed in m/s (hover to see current wind gust speed)